www.pogodaiklimat.ru

Погода и климат >> Архив погоды >> Россия >> Магаданская область >> Эвенск


ПОГОДА в Эвенске

  • Прогноз погоды в Эвенске
  • Монитор погоды в Эвенске

АРХИВ ПОГОДЫ в Эвенске

Время (UTC), дата Ветер
(напр.,м/с)
 
Видим.   Явления Облачность Т
(С)
Тd
(С)
f
(%)
Тe
(С)
Тes
(С)
Комфортность P
(гПа)
Po
(гПа)
Тmin
(С)
Tmax
(С)
R
(мм)
R24
(мм)
S
(см)
21 19.03 штиль 0 50 км 4/0
[Ac trans]
-21.3 -25.3 70 -21 -20 1055.2 1013.6 -24.0 9
00 20.03 СВ 7-12
{12}
50 км 1/0
[Ci fib]
-14.6 -22.7 50 -25 -24 1015.2 1013.6
03 20.03 С 5-11
{13}
50 км 1/0
[Ci fib]
-13.4 -22.8 45 -22 -20 1014.5 1012.9
06 20.03 СВ 5-11
{13}
50 км 1/0
[Ci fib]
-13.0 -22.5 45 -21 -21 1015.3 1013.7
09 20.03 СВ 6-10
{11}
50 км ясно -16.4 -24.4 50 -26 -26 1015.9 1014.3 -13.0
12 20.03 С 5-10
{11}
50 км ясно -18.9 -23.8 65 -29 -29 1016.2 1014.6
15 20.03 СВ 6-11
{11}
50 км 1/0
[Ac trans]
-17.2 -24.1 55 -27 -27 1016.4 1014.8
18 20.03 С 8-14
{14}
50 км 8/0
[Ac trans]
-16.0 -23.0 55 -27 -27 1016.3 1014.7
21 20.03 С 9-17
{19}
10 км осадки на расстоянии 10/0
[As trans]
-15.0 -21.0 60 -26 -26 1016.2 1014.6 -18.9 9
00 21.03 СВ 10-17
{18}
2000 м в посл. час ливневой снег {метель} 10/10 600 м
[Cb cap]
-13.9 -17.4 75 -26 -26 1015.9 1014.3
03 21.03 СВ 9-18
{20}
500 м ливневой снег {метель} 10/10 600 м
[Cb cap]
-13.0 -15.7 80 -24 -24 1015.1 1013.5
06 21.03 СВ 10-16
{20}
4000 м ливневой снег {метель} 10/10 600 м
[Cb cap]
-11.7 -16.1 70 -23 -23 1015.5 1013.9
09 21.03 СВ 9-19
{19}
500 м ливневой снег {метель} 10/10 600 м
[Cb cap]
-11.3 -14.1 80 -22 -22 1017.2 1015.6 -17.2 2
12 21.03 СВ 10-18
{21}
500 м ливневой снег {метель} 10/10 600 м
[Cb cap]
-11.0 -14.6 75 -22 -22 1017.4 1015.8
15 21.03 СВ 10-17
{20}
1000 м ливневой снег {метель} 10/10 600 м
[Cb cap]
-11.5 -14.3 80 -22 -22 1017.5 1015.9
18 21.03 СВ 9-15
{23}
4000 м ливневой снег {метель} 10/10 600 м
[Cb cap]
-12.0 -14.7 80 -23 -23 1018.1 1016.5
21 21.03 СВ 8-13
{17}
20 км позёмок {ливн. осадки} 10/10 600 м
[Cb calv]
-10.0 -13.6 75 -20 -20 1019.0 1017.4 -11.3 0.6 6
00 22.03 СВ 8-14
{15}
50 км позёмок 10/6 600 м
[Cb calv Ac trans]
-8.4 -13.7 66 -18 -18 1019.5 1017.9
03 22.03 СВ 7-12
{15}
50 км позёмок 10/4 1000 м
[Cb calv Ac trans]
-7.9 -13.5 64 -17 -16 1019.6 1018.0
06 22.03 СВ 8-12
{14}
50 км позёмок 10/6 1000 м
[Cb calv Ac trans]
-8.2 -13.4 66 -17 -17 1019.2 1017.6
09 22.03 СВ 6-12
{13}
50 км позёмок 10/8 1000 м
[Cb calv Ac trans]
-8.5 -13.8 66 -17 -17 1019.0 1017.4 -7.9
12 22.03 СВ 6-12
{13}
50 км позёмок 4/0
[Ac trans]
-9.4 -14.0 69 -18 -18 1018.8 1017.2
15 22.03 С 5-10
{12}
50 км позёмок 4/0
[Ac trans]
-10.1 -14.3 71 -18 -18 1017.3 1015.7
18 22.03 СВ 7-12
{13}
50 км позёмок 3/0
[Ac trans]
-11.4 -15.5 72 -21 -21 1015.7 1014.1
21 22.03 СВ 8-12
{13}
50 км позёмок 3/0
[Ac trans]
-10.0 -15.4 65 -20 -19 1015.1 1013.5 -11.4 7
00 23.03 СВ 9-16
{16}
50 км позёмок ясно -7.3 -13.7 60 -17 -16 1012.6 1011.1
03 23.03 СВ 7-15
{18}
50 км позёмок ясно -6.8 -14.1 56 -15 -14 1011.4 1009.8
06 23.03 штиль 0-12
{15}
50 км позёмок ?/? -6.6 -15.6 49 -7 -7 1009.5 1007.9
09 23.03 СВ 9-19
{23}
50 км позёмок 9/0
[As op]
-7.3 -14.9 55 -17 -17 1008.3 1006.7 -6.6
12 23.03 СВ 9-15
{20}
50 км позёмок 8/0
[As op]
-7.5 -15.2 54 -17 -17 1007.2 1005.6
15 23.03 СВ 8-18
{19}
50 км позёмок 8/0
[As op]
-8.0 -15.4 55 -17 -17 1004.9 1003.3
18 23.03 СВ 7-17
{18}
50 км позёмок 8/0
[As op]
-8.7 -15.3 59 -17 -17 1002.8 1001.2
21 23.03 СВ 6-14
{17}
50 км позёмок ясно -11.3 -17.9 58 -20 -19 1001.5 999.9 -11.3 7
00 24.03 СВ 5-11
{14}
50 км позёмок ясно -4.4 -13.5 49 -11 -8 1000.6 999.0
03 24.03 СВ 5-10
{11}
50 км {метель} ясно -3.6 -12.7 49 -10 -7 998.8 997.2
06 24.03 С 3
{11}
50 км {метель} ясно -2.0 -12.5 44 -6 -5 998.1 996.5
09 24.03 СВ 2 50 км ясно -8.2 -16.7 50 -12 -12 997.5 995.9 -2.0
12 24.03 СВ 2 50 км ясно -12.8 -20.2 54 -17 -17 996.4 994.8
15 24.03 С 4 50 км ясно -13.3 -20.5 55 -21 -21 995.8 994.2
18 24.03 С 4 50 км ясно -15.2 -20.6 63 -23 -23 995.2 993.6
21 24.03 С 2 50 км 8/6 1000 м
[Sc As trans]
-15.2 -20.3 65 -20 -20 994.7 993.1 -15.3 6
00 25.03 СВ 6-11
{11}
50 км 6/0
[Ac trans Ci fib]
-4.5 -14.5 46 -12 -10 994.3 992.8
03 25.03 СВ 5-10
{12}
50 км 6/0
[Ac trans Ci fib]
-2.3 -12.6 45 -8 -6 993.7 992.2
06 25.03 СВ 6-10
{11}
50 км 10/10 1000 м
[Sc]
-2.4 -11.7 49 -9 -9 993.6 992.1
09 25.03 штиль 0
{10}
50 км 10/10 1000 м
[Sc]
-5.2 -12.6 56 -6 -6 995.3 993.7 -2.3
12 25.03 С 2 50 км 10/10 1000 м
[Sc]
-6.4 -13.4 58 -10 -10 996.5 994.9
15 25.03 С 4 50 км 10/10 1000 м
[Sc]
-8.0 -14.8 58 -14 -14 994.6 993.0
18 25.03 С 4 50 км 8/8 1000 м
[Sc]
-10.4 -16.6 60 -17 -17 993.1 991.5
21 25.03 СЗ 3 50 км 8/0
[Ac lent Ci fib]
-6.8 -14.1 56 -12 -11 990.4 988.8 -10.4 6
00 26.03 СЗ 6-11
{14}
50 км 8/0
[Ac trans Ci fib]
-5.5 -14.3 50 -13 -11 986.9 985.4
03 26.03 СЗ 9-14
{14}
50 км 8/0
[Ac trans Ci fib]
-5.3 -14.5 48 -14 -14 983.6 982.1
06 26.03 СЗ 9-15
{17}
50 км 10/5 1000 м
[Sc As trans]
-6.4 -13.4 58 -16 -16 982.0 980.5
09 26.03 СЗ 9 50 км 10/10 1000 м
[Sc]
-8.0 -16.0 53 -18 -18 982.3 980.8 -10.9
12 26.03 С 7-10
{17}
50 км 10/10 1000 м
[Sc]
-9.4 -17.0 54 -18 -18 982.4 981.2
15 26.03 С 6-12
{14}
50 км 10/10 1000 м
[Sc]
-9.6 -16.6 57 -18 -18 984.4 982.9
18 26.03 С 5-10
{12}
50 км 6/4 1000 м
[Sc Ac trans]
-12.6 -20.7 51 -21 -21 986.7 985.2

 

Местоположение метеостанции Эвенск (Магаданская область, Россия): широта 61.92 долгота 159.20 высота над уровнем моря 12 м.

В архиве по умолчанию представлена погода в Эвенске за последнюю неделю. Архивные данные за месяц целиком и за предыдущие месяцы, начиная с января 2011 года, Вы можете получить, выбрав интересующий диапазон дат из раскрывающегося списка и нажав кнопку "Ввод!".


*Определитесь, кто Вы:
робот инопланетянин человек

Внимание! Время в таблицах - всемирное. Для получения местного времени необходимо прибавить поправку, которая равна 11 ч.

Смотрите также архив погоды в соседних городах и на ближайших метеорологических станциях:

Погода в Лабазной (Магаданская область, Россия) (158 км)
Погода в Омсукчане (Магаданская область, Россия) (188 км)
Погода на Шелихова (Магаданская область, Россия) (225 км)
Погода в Чемурнауте (Камчатский край, Россия) (242 км)
Погода в Кегали (Магаданская область, Россия) (275 км)
Погода в Палане (Камчатский край, Россия) (318 км)
Погода в Балыгычане (Магаданская область, Россия) (340 км)
Погода в Верхне-Пенжино (Камчатский край, Россия) (359 км)
Погода в Среднекане (Магаданская область, Россия) (363 км)
Погода в Оссоре (Камчатский край, Россия) (364 км)

Пояснения к столбцам:

Ветер - указаны скорость ветра в м/с - средняя за 10 мин, порывы в срок и между сроками (в фигурных скобках) и направление, откуда дует ветер: С - северный, СВ - северо-восточный, В - восточный, ЮВ - юго-восточный, Ю - южный, ЮЗ - юго-западный, З - западный, СЗ - северо-западный.
Видимость - горизонтальная дальность видимости в метрах или километрах. При видимости от 1 до 10 км при отсутствии осадков обычно наблюдается дымка, при ухудшении видимости до 1 км и менее - туман. В сухую погоду видимость может ухудшаться дымом, пылью или мглою.
Явления - указаны атмосферные явления, наблюдавшиеся в срок или в последний час перед сроком; фигурными скобками обозначены явления, наблюдавшиеся между сроками (за 1-3 часа до срока); квадратными скобками обозначены град или гололедные отложения с указанием их диаметра в мм.
Облачность - указаны через наклонную черту общая и нижняя облачность в баллах и высота нижней границы облаков в метрах; квадратными скобками обозначены формы облаков: Ci - перистые, Cs - перисто-слоистые, Cc - перисто-кучевые, Ac - высококучевые, As - высокослоистые, Sc - слоисто-кучевые, Ns - слоисто-дождевые, Cu - кучевые, Cb - кучево-дождевые. Подробнее классификацию облаков см. в Атласе облаков (PDF).
T - Температура воздуха - температура, измеренная на высоте 2 м над землей.
Td - Температура точки росы - температура, при понижении до которой содержащийся в воздухе водяной пар достигнет насыщения.
f - Относительная влажность воздуха - влажноcть воздуха, измеренная на высоте 2 м над землей.
Te - Эффективная температура - температура, которую ощущает одетый по сезону человек в тени. Характеристика душности погоды. При расчете учитывается влияние влажности воздуха и скорости ветра на теплоощущения человека.
Tes - Эффективная температура на солнце - температура, которую ощущает человек, с поправкой на солнечный нагрев. Характеристика знойности погоды. Зависит от высоты солнца над горизонтом, облачности и скорости ветра. Ночью, в пасмурную погоду, а также при ветре 12 м/с и более поправка равна нулю.
P - Атмосферное давление - приведенное к уровню моря атмосферное давление.
Po - Атмосферное давление - измеренное на уровне метеостанции атмосферное давление.
Tmin - Минимальная температура - минимум температуры воздуха на высоте 2 м над землей.
Tmax - Максимальная температура - максимум температуры воздуха на высоте 2 м над землей.
R - Количество осадков - Количество выпавших осадков за период времени, мм. При наведении курсора мыши на число - период времени, за который выпало указанное количество осадков.
R24 - Количество осадков - Количество выпавших осадков за 24 часа, мм.
S - Снежный покров - Высота снежного покрова, см. При наведении курсора мыши на число - состояние снежного покрова и степень покрытия местности в баллах.